EW0139 Weather Reports


Display with metric or nautical units.
time (UTC)temp
F
wind
direction
speed
MPH
gust
MPH
rain 1hr
in
rain 24hr
in
rain mn
in
humidity
%
barometer
mb
20260904042249 63 34 1.0 3.0 0.00 0.00 0.00 43 1008.3
20260904040749 64 34 0.0 3.0 0.00 0.00 0.00 41 1008.2
20260904035256 66 32 3.0 7.0 0.00 0.00 0.00 40 1008.3
20260904033758 66 34 4.0 6.0 0.00 0.00 0.00 39 1008.4
20260904032243 66 38 2.0 6.0 0.00 0.00 0.00 38 1008.4
20260904030744 67 28 2.0 5.0 0.00 0.00 0.00 38 1008.3
20260904025248 67 18 1.0 2.0 0.00 0.00 0.00 36 1008.2
20260904023752 69 19 0.0 3.0 0.00 0.00 0.00 34 1008.2
20260904022253 72 19 1.0 5.0 0.00 0.00 0.00 31 1008.1
20260904020742 74 9 0.0 2.0 0.00 0.00 0.00 30 1008.1
20260904015243 76 9 1.0 2.0 0.00 0.00 0.00 29 1007.8
20260904013747 78 9 0.0 1.0 0.00 0.00 0.00 28 1007.8
20260904012251 79 9 0.0 3.0 0.00 0.00 0.00 26 1007.7
20260904010752 81 342 2.0 3.0 0.00 0.00 0.00 26 1007.4
20260904005255 83 339 0.0 5.0 0.00 0.00 0.00 24 1007.2
20260904003820 84 223 0.0 2.0 0.00 0.00 0.00 22 1007.2
20260904002321 84 223 0.0 4.0 0.00 0.00 0.00 22 1006.8
20260904000740 84 219 0.0 4.0 0.00 0.00 0.00 22 1006.8
20260903235248 84 239 2.0 4.0 0.00 0.00 0.00 21 1007.9
20260903233748 84 134 1.0 4.0 0.00 0.00 0.00 22 1007.7
20260903232254 83 110 0.0 6.0 0.00 0.00 0.00 22 1007.6
20260903230756 83 122 0.0 8.0 0.00 0.00 0.00 22 1007.8
20260903225258 83 225 4.0 13.0 0.00 0.00 0.00 22 1007.6
20260903223743 84 331 1.0 7.0 0.00 0.00 0.00 22 1007.3
20260903222248 83 209 3.0 7.0 0.00 0.00 0.00 22 1007.5
20260903220754 83 265 7.0 10.0 0.00 0.00 0.00 23 1007.4
20260903215254 83 181 5.0 7.0 0.00 0.00 0.00 23 1007.4
20260903213757 82 215 5.0 10.0 0.00 0.00 0.00 23 1007.2
20260903212243 82 176 2.0 7.0 0.00 0.00 0.00 24 1007.2
20260903210744 82 250 0.0 8.0 0.00 0.00 0.00 24 1007.3
20260903205247 81 10 4.0 5.0 0.00 0.00 0.00 25 1007.3
20260903203755 80 207 1.0 6.0 0.00 0.00 0.00 27 1007.2
20260903202318 80 187 2.0 11.0 0.00 0.00 0.00 26 1007.5
20260903200744 80 305 7.0 12.0 0.00 0.00 0.00 25 1007.6
20260903195246 80 181 5.0 13.0 0.00 0.00 0.00 26 1007.6
20260903193748 79 175 9.0 12.0 0.00 0.00 0.00 26 1007.6
20260903192254 78 204 2.0 12.0 0.00 0.00 0.00 28 1007.5
20260903190755 78 188 5.0 12.0 0.00 0.00 0.00 29 1007.5
20260903185241 77 209 4.0 9.0 0.00 0.00 0.00 29 1007.6
20260903183742 77 121 0.0 8.0 0.00 0.00 0.00 31 1007.5
20260903182242 75 138 5.0 9.0 0.00 0.00 0.00 33 1007.7
20260903180808 74 122 5.0 8.0 0.00 0.00 0.00 35 1007.9
20260903175249 74 195 0.0 7.0 0.00 0.00 0.00 37 1007.9
20260903173813 73 180 4.0 7.0 0.00 0.00 0.00 44 1008.2
20260903172241 70 186 2.0 6.0 0.00 0.00 0.00 48 1008.3
20260903170743 69 184 3.0 5.0 0.00 0.00 0.00 48 1008.3
20260903165243 67 242 2.0 6.0 0.00 0.00 0.00 50 1008.4
20260903163751 67 204 3.0 6.0 0.00 0.00 0.00 52 1008.3
20260903162254 65 131 2.0 3.0 0.00 0.00 0.00 55 1008.3